[[{"header":{"parameterUnit":"m.s-1","parameterCategory":1,"la1":30.2991,"la2":30.254,"lo1":-89.0895,"lo2":-89.0444,"dy":0.0017,"dx":0.0017,"nx":28,"ny":28,"refTime":"2025-09-02T09:00:00:Z","depth":0,"parameterNumber":2,"parameterNumberName":"U-component_of_WINDS"},"data":[0,0,0,0,0,0,0,0,0,0,0,0,0,0,0,0,0,0,0,0,0,0,0,0,0,0,0,0,0,0,0,0,0,0,0,0,0,0,0,0,0,0,0,0,0,0,0,0,0,0,0,0,0,0,0,0,0,0,-5.2818,-5.2818,0,-5.2892,-5.2893,-5.2894,-5.2799,-5.2795,-5.2792,-5.2789,-5.2865,-5.287,-5.2875,0,0,0,0,0,0,0,0,0,0,0,0,0,-5.2592,-5.2596,-5.2817,-5.2818,-5.2819,-5.2892,-5.2893,-5.2894,-5.2799,-5.2795,-5.2791,-5.2787,-5.2863,-5.287,-5.2876,0,0,0,0,0,0,0,0,0,0,0,0,0,-5.2681,-5.2598,-5.2817,-5.2781,-5.2778,-5.2892,-5.2893,-5.2895,-5.28,-5.2795,-5.279,-5.2785,-5.2861,-5.2869,-5.2877,-5.303,0,0,-5.2901,-5.2904,0,0,0,0,0,0,0,0,-5.2676,-5.2689,-5.2785,-5.2783,-5.2781,-5.2831,-5.2842,-5.294,-5.2802,-5.2792,-5.2788,-5.2782,-5.2858,-5.2866,-5.2891,-5.3034,-5.3037,-5.2902,-5.2906,-5.291,-5.2912,0,0,0,0,0,0,0,-5.267,-5.2685,-5.2847,-5.2787,-5.2784,-5.276,-5.2767,-5.286,-5.2853,-5.2792,-5.2786,-5.2796,-5.2856,-5.2884,-5.2892,-5.3038,-5.2901,-5.2908,-5.2913,-5.2916,-5.331,-5.3316,0,0,0,0,0,0,-5.2668,-5.2681,-5.2845,-5.2849,-5.2714,-5.2769,-5.2776,-5.282,-5.2852,-5.2852,-5.28,-5.2791,-5.2873,-5.2883,-5.2895,-5.3077,-5.291,-5.2917,-5.2922,-5.3305,-5.3312,-5.3318,0,0,0,0,0,0,-5.2663,-5.2683,-5.2842,-5.2763,-5.2782,-5.2778,-5.2828,-5.2824,-5.2852,-5.2858,-5.2856,-5.283,-5.2869,-5.2884,-5.2997,-5.3078,-5.2921,-5.2928,-5.3298,-5.3307,-5.3315,-5.3441,0,0,0,0,0,0,-5.2657,-5.2682,-5.2741,-5.2765,-5.2786,-5.2943,-5.2833,-5.283,-5.2866,-5.2855,-5.2886,-5.2886,-5.2866,-5.2986,-5.3005,-5.3086,-5.2934,-5.3291,-5.3302,-5.3312,-5.343,-5.3453,-5.3473,0,0,0,0,0,-5.265,-5.2773,-5.2744,-5.2764,-5.2859,-5.2948,-5.296,-5.2935,-5.2873,-5.2932,-5.2935,-5.2885,-5.3066,-5.2998,-5.3019,-5.3104,-5.3285,-5.3299,-5.3311,-5.342,-5.3449,-5.3473,0,0,0,0,0,0,-5.2758,-5.2776,-5.2744,-5.2879,-5.2913,-5.2932,-5.3005,-5.2966,-5.3018,-5.3005,-5.2972,-5.298,-5.3102,-5.3114,-5.3038,-5.3254,-5.3165,-5.3183,-5.3241,-5.3268,-5.329,-5.3284,-5.2941,0,0,0,0,0,-5.2797,-5.2868,-5.288,-5.2998,-5.3017,-5.3009,-5.3046,-5.3024,-5.3058,-5.3072,-5.3084,-5.3118,-5.3183,-5.3226,-5.3286,-5.3431,-5.3437,-5.35,-5.3521,-5.3539,-5.3555,-5.3633,-5.3661,-5.336,-5.336,-5.336,0,0,-5.288,-5.2898,-5.2945,-5.3021,-5.3044,-5.3119,-5.3021,-5.3104,-5.3159,-5.3084,-5.3192,-5.3203,-5.3239,-5.337,-5.3427,-5.3383,-5.3639,-5.3555,-5.3569,-5.3575,-5.3649,-5.3677,-5.3703,-5.3369,-5.3367,-5.3366,0,0,-5.3068,-5.3089,-5.319,-5.3216,-5.3253,-5.3247,-5.3271,-5.3297,-5.3301,-5.3409,-5.3355,-5.342,-5.3532,-5.356,-5.3589,-5.3789,-5.3745,-5.381,-5.3922,-5.3999,-5.4023,-5.4043,-5.4115,-5.4141,-5.3825,-5.3825,-5.3826,0,-5.3166,-5.3276,-5.3247,-5.3334,-5.3369,-5.3305,-5.3407,-5.3434,-5.3489,-5.3515,-5.3464,-5.3604,-5.3624,-5.376,-5.3809,-5.3835,-5.3862,-5.3806,-5.4022,-5.4042,-5.4061,-5.4129,-5.4156,-5.3833,-5.3832,-5.3831,-5.3831,0,-5.3394,-5.3472,-5.3549,-5.3604,-5.3647,-5.3742,-5.3727,-5.3775,-5.3749,-5.3748,-5.3859,-5.3881,-5.3944,-5.3975,-5.3951,-5.4109,-5.408,-5.4027,-5.3937,-5.4098,-5.4161,-5.4187,-5.3844,-5.3841,-5.3839,-5.3837,0,0,-5.3652,-5.3691,-5.372,-5.3744,-5.3781,-5.384,-5.3932,-5.3994,-5.4035,-5.4076,-5.4151,-5.4248,-5.4199,-5.4232,-5.421,-5.4278,-5.4435,-5.4216,-5.4216,-5.4256,-5.4611,-5.4651,-5.4682,-5.4406,-5.4411,-5.4415,-5.4608,0,-5.3841,-5.3999,-5.3977,-5.4129,-5.42,-5.4141,-5.4221,-5.4252,-5.4254,-5.4314,-5.4316,-5.4385,-5.4315,-5.4335,-5.4399,-5.4403,-5.4506,-5.4388,-5.4477,-5.448,-5.4469,-5.4715,-5.4757,-5.4938,-5.4632,-5.4637,-5.464,0,-5.4082,-5.4132,-5.4292,-5.4318,-5.4347,-5.4419,-5.4474,-5.4533,-5.4567,-5.4564,-5.4602,-5.4568,-5.4659,-5.4569,-5.4694,-5.4615,-5.465,-5.4657,-5.4664,-5.4671,-5.457,-5.4729,-5.4995,-5.5023,-5.4678,-5.4675,-5.4672,0,-5.4255,-5.4362,-5.4471,-5.4494,-5.4527,-5.4579,-5.4595,-5.4625,-5.4664,-5.4712,-5.4737,-5.4796,-5.4828,-5.4874,-5.4857,-5.4793,-5.4987,-5.4894,-5.4986,-5.4987,-5.503,-5.5027,-5.5306,-5.5053,-5.5052,-5.5052,-5.5051,0,-5.4468,-5.4568,-5.4549,-5.4617,-5.4727,-5.47,-5.481,-5.4819,-5.4846,-5.4914,-5.4866,-5.4931,-5.4905,-5.4969,-5.4956,-5.5062,-5.5077,-5.5077,-5.5072,-5.5081,-5.5082,-5.5104,-5.5091,-5.5059,-5.5057,-5.5056,-5.5055,0,-5.468,-5.4671,-5.4786,-5.4809,-5.4817,-5.4897,-5.4916,-5.4979,-5.4977,-5.5064,-5.5083,-5.508,-5.5152,-5.514,-5.522,-5.5212,-5.5345,-5.5325,-5.5333,-5.5329,-5.5421,-5.5413,-5.5724,-5.5763,-5.5485,-5.5487,-5.549,0,-5.4816,-5.4892,-5.4923,-5.4965,-5.4985,-5.5054,-5.5094,-5.507,-5.5113,-5.5159,-5.5217,-5.5285,-5.5338,-5.5456,-5.5461,-5.5522,-5.5503,-5.5608,-5.5512,-5.5519,-5.5505,-5.5501,-5.5508,-5.5627,-5.563,-5.5633,-5.5635,0,-5.506,-5.5052,-5.5111,-5.517,-5.5218,-5.5263,-5.5303,-5.534,-5.532,-5.5371,-5.5445,-5.5486,-5.5568,-5.5636,-5.5693,-5.571,-5.567,-5.5665,-5.569,-5.5699,-5.5701,-5.5702,-5.5385,-5.5658,-5.5656,-5.5654,-5.5653,-5.5652,-5.5238,-5.5303,-5.5335,-5.5402,-5.543,-5.5469,-5.5529,-5.5535,-5.5596,-5.5661,-5.5643,-5.5727,-5.5759,-5.5832,-5.5855,-5.592,-5.5881,-5.5917,-5.5926,-5.5935,-5.5946,-5.5691,-5.593,-5.593,-5.5929,-5.5928,-5.5928,0,-5.5479,-5.5497,-5.556,-5.5617,-5.5671,-5.5628,-5.5671,-5.5718,-5.5792,-5.5826,-5.588,-5.5964,-5.603,-5.6041,-5.6104,-5.6154,-5.6137,-5.6171,-5.6167,-5.6171,-5.5977,-5.595,-5.6183,-5.6183,-5.6183,-5.6183,-5.6183,-5.6183,-5.5611,-5.5718,-5.5714,-5.5835,-5.5852,-5.5933,-5.5961,-5.5997,-5.6024,-5.612,-5.6175,-5.6182,-5.6207,-5.6271,-5.633,-5.6331,-5.6356,-5.6398,-5.6392,-5.6211,-5.6185,-5.6161,-5.6135,-5.6404,-5.6404,-5.6581,-5.6583,-5.6584]},{"header":{"parameterUnit":"m.s-1","parameterCategory":1,"la1":30.2991,"la2":30.254,"lo1":-89.0895,"lo2":-89.0444,"dy":0.0017,"dx":0.0017,"nx":28,"ny":28,"refTime":"2025-09-02T09:00:00:Z","depth":0,"parameterNumber":3,"parameterNumberName":"V-component_of_WINDS"},"data":[0,0,0,0,0,0,0,0,0,0,0,0,0,0,0,0,0,0,0,0,0,0,0,0,0,0,0,0,0,0,0,0,0,0,0,0,0,0,0,0,0,0,0,0,0,0,0,0,0,0,0,0,0,0,0,0,0,0,-1.391,-1.3909,0,-1.3856,-1.3856,-1.3855,-1.3788,-1.3787,-1.3786,-1.3785,-1.3732,-1.3732,-1.3731,0,0,0,0,0,0,0,0,0,0,0,0,0,-1.3955,-1.3954,-1.391,-1.3909,-1.3908,-1.3856,-1.3855,-1.3855,-1.3789,-1.3787,-1.3786,-1.3785,-1.3732,-1.3732,-1.3731,0,0,0,0,0,0,0,0,0,0,0,0,0,-1.3922,-1.3954,-1.391,-1.3869,-1.3865,-1.3856,-1.3855,-1.3855,-1.3789,-1.3787,-1.3786,-1.3784,-1.3733,-1.3732,-1.3731,-1.3759,0,0,-1.3729,-1.3729,0,0,0,0,0,0,0,0,-1.3924,-1.392,-1.3876,-1.3872,-1.3867,-1.3827,-1.3852,-1.3823,-1.3789,-1.3818,-1.3785,-1.3783,-1.3765,-1.3762,-1.3755,-1.3757,-1.3754,-1.3729,-1.3729,-1.3729,-1.3728,0,0,0,0,0,0,0,-1.3926,-1.3922,-1.3889,-1.3875,-1.387,-1.3853,-1.3847,-1.3846,-1.3801,-1.3815,-1.381,-1.3805,-1.3763,-1.3756,-1.3754,-1.3754,-1.3729,-1.3729,-1.3728,-1.3728,-1.3773,-1.3774,0,0,0,0,0,0,-1.3934,-1.3924,-1.389,-1.3887,-1.3892,-1.3854,-1.3847,-1.3842,-1.3801,-1.3793,-1.3806,-1.3802,-1.3758,-1.3754,-1.3752,-1.378,-1.3729,-1.3728,-1.3728,-1.3771,-1.3773,-1.3775,0,0,0,0,0,0,-1.3936,-1.3932,-1.3892,-1.3904,-1.3898,-1.3855,-1.385,-1.3842,-1.3835,-1.3794,-1.3786,-1.3808,-1.3757,-1.3752,-1.3757,-1.3777,-1.3728,-1.3727,-1.3769,-1.3772,-1.3774,-1.3839,0,0,0,0,0,0,-1.3937,-1.3933,-1.3943,-1.3905,-1.3898,-1.3899,-1.3851,-1.3842,-1.3834,-1.3828,-1.3793,-1.3786,-1.3755,-1.3758,-1.3756,-1.3776,-1.3727,-1.3767,-1.377,-1.3773,-1.3834,-1.3843,-1.385,0,0,0,0,0,-1.3939,-1.3964,-1.3944,-1.394,-1.391,-1.3901,-1.3896,-1.3859,-1.3836,-1.3846,-1.3819,-1.3787,-1.3775,-1.3759,-1.3757,-1.3776,-1.3766,-1.3769,-1.3773,-1.3831,-1.3841,-1.385,0,0,0,0,0,0,-1.4007,-1.3959,-1.3936,-1.3949,-1.3929,-1.3889,-1.3901,-1.3872,-1.3859,-1.3854,-1.3809,-1.3802,-1.3812,-1.3794,-1.3777,-1.38,-1.3766,-1.3769,-1.3811,-1.382,-1.3828,-1.3832,-1.3726,0,0,0,0,0,-1.4024,-1.402,-1.3978,-1.3994,-1.3985,-1.3945,-1.394,-1.3913,-1.389,-1.3882,-1.3856,-1.3836,-1.3827,-1.3823,-1.3813,-1.3831,-1.3822,-1.3843,-1.3851,-1.3857,-1.3861,-1.3868,-1.3876,-1.3786,-1.3786,-1.3786,0,0,-1.4058,-1.4031,-1.4032,-1.4007,-1.3989,-1.3986,-1.3938,-1.3938,-1.3935,-1.3882,-1.3884,-1.3864,-1.3839,-1.385,-1.3854,-1.3836,-1.3883,-1.3862,-1.3867,-1.3867,-1.3872,-1.3881,-1.3888,-1.3789,-1.3788,-1.3788,0,0,-1.4119,-1.4099,-1.4109,-1.4091,-1.4063,-1.4035,-1.4038,-1.4001,-1.3986,-1.3987,-1.3947,-1.3943,-1.3929,-1.3912,-1.3902,-1.3954,-1.3924,-1.3952,-1.3993,-1.4,-1.4007,-1.4013,-1.4031,-1.4038,-1.3955,-1.3955,-1.3956,0,-1.4166,-1.416,-1.4118,-1.412,-1.411,-1.406,-1.4069,-1.4054,-1.4025,-1.4019,-1.3999,-1.3979,-1.3959,-1.3964,-1.3977,-1.397,-1.3971,-1.3956,-1.4009,-1.4015,-1.402,-1.4037,-1.4044,-1.3959,-1.3959,-1.3958,-1.3958,0,-1.4218,-1.4214,-1.4226,-1.4197,-1.4188,-1.4194,-1.4153,-1.4149,-1.4122,-1.4097,-1.4098,-1.4071,-1.4054,-1.4053,-1.4028,-1.4055,-1.4044,-1.4018,-1.3983,-1.4033,-1.4048,-1.4054,-1.3964,-1.3963,-1.3962,-1.3961,0,0,-1.4322,-1.4269,-1.4274,-1.4259,-1.4224,-1.422,-1.4223,-1.4205,-1.4202,-1.4182,-1.4183,-1.4172,-1.4146,-1.4134,-1.4106,-1.4112,-1.4154,-1.4084,-1.4083,-1.4098,-1.4181,-1.4201,-1.421,-1.4133,-1.4134,-1.4135,-1.4183,0,-1.4377,-1.4378,-1.434,-1.4352,-1.4347,-1.4299,-1.4301,-1.4279,-1.4255,-1.4247,-1.422,-1.4213,-1.418,-1.4172,-1.4176,-1.4148,-1.417,-1.4144,-1.4134,-1.4134,-1.4142,-1.4217,-1.4239,-1.4286,-1.4188,-1.4189,-1.419,0,-1.4441,-1.4424,-1.4435,-1.4397,-1.4393,-1.4396,-1.4376,-1.4369,-1.4343,-1.4324,-1.431,-1.4277,-1.4276,-1.4243,-1.4241,-1.4224,-1.4217,-1.4203,-1.4204,-1.4202,-1.4165,-1.4217,-1.43,-1.4307,-1.4199,-1.4198,-1.4198,0,-1.4515,-1.4495,-1.4499,-1.4488,-1.4444,-1.4446,-1.4428,-1.44,-1.4391,-1.4373,-1.4366,-1.4349,-1.434,-1.4327,-1.429,-1.4269,-1.4292,-1.4256,-1.4276,-1.4277,-1.4284,-1.4284,-1.4367,-1.428,-1.428,-1.428,-1.428,0,-1.458,-1.4589,-1.4531,-1.4534,-1.4541,-1.4497,-1.4506,-1.4483,-1.4458,-1.4454,-1.4411,-1.4409,-1.436,-1.4352,-1.4323,-1.4325,-1.4322,-1.4306,-1.4299,-1.431,-1.4312,-1.4306,-1.4301,-1.4281,-1.4281,-1.4281,-1.428,0,-1.4665,-1.4627,-1.4628,-1.4585,-1.4574,-1.4582,-1.4545,-1.4545,-1.4517,-1.4513,-1.451,-1.4466,-1.4454,-1.4415,-1.4395,-1.4375,-1.4386,-1.4371,-1.4395,-1.439,-1.4412,-1.4411,-1.4494,-1.4502,-1.441,-1.4411,-1.4412,0,-1.4709,-1.4715,-1.4672,-1.4666,-1.4649,-1.4641,-1.4631,-1.4586,-1.4578,-1.4547,-1.455,-1.4535,-1.452,-1.4503,-1.447,-1.4453,-1.4437,-1.4467,-1.4434,-1.4445,-1.4437,-1.4437,-1.4437,-1.4475,-1.4476,-1.4477,-1.4478,0,-1.4791,-1.4772,-1.4759,-1.4739,-1.4728,-1.471,-1.469,-1.4688,-1.4638,-1.4631,-1.4617,-1.4606,-1.4583,-1.4568,-1.4545,-1.4526,-1.4494,-1.4488,-1.4492,-1.4504,-1.4517,-1.451,-1.4414,-1.4487,-1.4486,-1.4485,-1.4485,-1.4484,-1.4857,-1.4859,-1.4828,-1.4815,-1.4795,-1.4776,-1.4774,-1.4744,-1.4733,-1.471,-1.4684,-1.4674,-1.4645,-1.4611,-1.4594,-1.4585,-1.4567,-1.4573,-1.4575,-1.4577,-1.4582,-1.4518,-1.4581,-1.458,-1.458,-1.458,-1.458,0,-1.4936,-1.4914,-1.4902,-1.4874,-1.4863,-1.4832,-1.4808,-1.4801,-1.4792,-1.4768,-1.4753,-1.4737,-1.4722,-1.4686,-1.4667,-1.4666,-1.4651,-1.4663,-1.4662,-1.4658,-1.4599,-1.4597,-1.4675,-1.4675,-1.4675,-1.4675,-1.4675,-1.4675,-1.4976,-1.4977,-1.4954,-1.4943,-1.492,-1.4909,-1.4898,-1.488,-1.486,-1.4844,-1.483,-1.4807,-1.4778,-1.4756,-1.474,-1.4729,-1.4724,-1.4741,-1.4726,-1.4672,-1.4663,-1.4654,-1.4652,-1.474,-1.4741,-1.4786,-1.4786,-1.4787]}]]